{"data":{"norad_id":68270,"epoch":"2026-05-24T18:48:17.973504Z","epoch_age_seconds":93125,"freshness":"FRESH","line1":"1 68270U 26055J   26144.78354136  .00021438  00000+0  64382-3 0  9998","line2":"2 68270  53.1593 326.3639 0001098  81.1755 278.9372 15.34398846 11571","mean_motion":15.34398846,"eccentricity":0.0001098,"inclination_deg":53.1593,"raan_deg":326.3639,"arg_perigee_deg":81.1755,"mean_anomaly_deg":278.9372,"bstar":0.00064382,"rev_number":1157,"period_min":93.847828662926,"perigee_km":461.95554550547,"apogee_km":463.45779477543,"semimajor_km":6840.8436701404,"source":"CELESTRAK","updated_at":"2026-05-25T13:38:21.891619Z"}}